Temp
34 36 39 39 39 41 34 38 31 37 39 43 41 39 40 40 38 37 37 35 34 27 23 22 26 28 29 30 30 31 31 33 34 34 36 35 33 32 32 33 34 35 35 36
30 38 40 36 35 37 38 40 41 41 39 49 48 43 39 38 39 37 36 35 34 32 30 27 28 29 30 29 29 30 30 32 34 34 35 34 32 31 31 32 32 34 34 34
28 35 33 27 32 34 32 39 39 33 41 40 38 39 38 37 39 37 36 35 32 30 30 30 29 30 27 28 29 29 31 32 33 33 32 33 32 31 30 30 32 32 33 33
28 30 22 34 42 42 40 41 42 41 38 40 40 39 38 40 37 36 35 33 31 30 30 28 28 27 28 28 28 30 30 31 32 32 31 32 31 29 30 30 30 31 32 32
26 26 30 34 38 37 35 35 42 40 37 34 35 36 32 37 37 34 32 31 30 29 28 27 28 28 28 26 29 29 29 30 31 32 31 31 30 29 30 30 29 30 32 31
26 23 21 32 39 43 43 27 39 39 33 33 37 29 28 33 34 32 32 31 29 28 27 26 25 27 25 24 28 28 29 30 30 31 31 30 30 29 30 28 30 30 30 31
28 25 29 37 40 43 30 28 36 36 35 34 26 30 31 32 31 31 30 28 28 27 24 24 26 26 24 25 26 29 30 30 30 31 31 31 30 30 28 27 29 27 27 29
28 25 22 40 40 34 36 34 35 35 32 29 29 29 29 30 28 28 26 26 26 24 23 24 24 24 22 25 29 31 29 29 30 31 31 31 28 28 28 26 27 25 25 26
29 28 36 38 37 37 39 34 34 32 32 31 29 28 28 26 26 25 25 23 24 22 23 24 24 25 24 26 29 28 28 28 30 30 31 29 26 25 25 25 25 24 23 23
32 34 33 36 37 38 38 35 35 35 34 33 28 28 25 25 24 23 22 21 22 21 20 22 23 25 25 27 28 28 27 28 28 28 28 27 27 25 24 22 23 23 21 21
30 33 35 36 36 36 35 36 35 35 33 30 28 26 25 23 22 22 22 21 21 21 21 21 22 23 24 26 28 27 27 27 26 27 25 26 26 25 24 23 23 21 22 22
26 35 35 34 36 37 34 33 34 31 29 29 27 24 24 22 22 21 21 21 21 21 20 19 21 22 23 24 27 25 25 25 24 24 24 24 24 24 27 26 26 25 26 23
33 39 37 37 38 37 32 32 32 30 28 25 25 25 24 22 22 22 19 19 17 16 17 18 19 20 21 23 25 23 22 23 23 23 22 21 21 20 19 23 26 24 24 24
39 37 33 33 30 34 32 32 31 29 27 26 25 24 23 21 19 13 7 4 2 5 7 9 11 16 18 21 19 19 19 20 19 19 19 19 19 19 19 18 16 17 22 22
38 39 36 32 31 30 31 30 26 25 24 23 24 22 21 19 18 17 10 3 1 2 4 5 9 15 16 15 14 14 17 18 17 17 17 17 17 17 17 17 16 16 17 18
34 33 33 31 29 29 29 28 26 25 24 23 22 22 22 22 21 19 17 16 12 6 4 3 8 17 22 14 13 15 16 18 17 17 16 16 16 15 15 15 15 14 13 13
29 28 28 28 28 28 27 27 26 24 23 22 21 21 20 18 16 14 7 3 2 1 2 3 9 10 19 22 16 16 16 17 16 16 15 14 14 13 13 12 11 12 11 12
39 35 35 32 29 27 26 26 25 24 22 21 20 13 9 8 6 -1 -4 -5 0 5 7 9 12 16 17 19 19 17 16 16 16 14 14 11 11 12 10 10 10 9 9 10
36 33 32 31 29 27 25 23 21 19 15 13 12 7 6 3 5 1 -2 1 1 8 9 15 20 17 17 18 16 15 13 11 13 12 11 7 7 9 8 8 7 6 7 7
29 30 28 26 26 23 17 15 16 13 12 10 8 6 4 -3 -0 -1 -0 5 4 10 16 16 16 15 15 14 12 13 11 9 10 8 6 5 2 -0 4 4 5 4 4 5
25 25 21 19 16 16 16 15 14 12 10 10 10 6 6 -1 -6 -4 5 7 9 13 15 12 12 11 12 10 10 7 5 4 3 2 -1 -3 -3 -0 -1 -1 0 1 1 1
19 18 16 16 15 11 11 14 12 9 7 3 2 4 3 -2 -6 -2 -4 4 8 6 10 9 9 2 6 6 7 2 7 4 2 1 -2 -4 -5 -5 -3 -2 -1 0 -1 -1
16 16 14 14 13 10 8 8 7 8 4 5 6 4 6 7 7 7 3 8 8 5 8 2 -0 -1 -3 -4 -6 -8 -7 -7 -7 -8 -9 -12 -12 -11 -10 -5 -3 -2 -1 0
15 13 9 10 11 11 7 -2 5 3 4 3 5 4 8 5 -1 3 5 3 1 -1 -2 -3 -3 -1 -5 -10 -10 -11 -11 -12 -12 -13 -9 -9 -16 -12 -8 -8 -7 -5 -6 -4
14 12 12 13 12 11 8 5 5 2 4 5 3 4 8 7 6 5 4 2 5 1 -1 -3 -2 -4 -10 -11 -11 -11 -11 -13 -13 -13 -14 -15 -15 -16 -14 -10 -9 -9 -10 -10
15 14 14 14 14 13 11 12 10 8 9 2 -1 -3 -2 0 2 6 -1 0 3 1 -2 -7 -9 -10 -10 -8 -10 -10 -10 -6 -10 -10 -13 -13 -15 -13 -15 -10 -11 -10 -12 -13
14 13 13 12 13 13 13 12 10 7 7 8 7 2 3 -4 -1 1 -3 -5 -4 -5 -6 -7 -8 -5 -7 -9 -8 -8 -9 -10 -11 -10 -14 -15 -16 -18 -18 -17 -15 -14 -14 -14
MSLP
1014.74 1014.35 1013.41 1012.37 1011.84 1011.93 1012.29 1011.60 1012.08 1011.59 1012.38 1011.70 1013.32 1014.68 1015.70 1016.66 1017.85 1019.07 1020.08 1021.22 1022.13 1023.09 1023.38 1023.46 1023.40 1022.90 1022.42 1021.85 1021.14 1020.32 1019.83 1019.11 1018.50 1017.94 1016.99 1016.46 1016.16 1015.49 1014.70 1013.70 1012.51 1011.50 1010.51 1009.52
1014.58 1013.59 1013.37 1013.10 1012.62 1012.11 1011.90 1011.77 1011.58 1011.74 1011.65 1010.94 1012.16 1013.87 1015.44 1016.52 1017.93 1019.14 1020.40 1021.14 1022.10 1022.83 1023.38 1023.37 1023.11 1022.84 1022.30 1021.76 1021.15 1020.63 1019.92 1019.21 1018.57 1017.83 1017.00 1016.39 1016.25 1015.56 1014.58 1013.45 1012.30 1011.32 1010.45 1009.57
1014.28 1013.36 1013.35 1012.84 1011.43 1011.41 1011.55 1011.38 1010.93 1011.37 1010.01 1011.49 1012.76 1013.81 1015.09 1016.49 1017.72 1018.75 1019.96 1021.20 1021.83 1022.48 1023.20 1023.37 1023.30 1023.15 1022.32 1021.69 1021.23 1020.64 1019.92 1019.44 1018.77 1017.91 1017.09 1016.47 1016.31 1015.42 1014.45 1013.31 1012.39 1011.31 1010.44 1009.58
1014.80 1014.01 1012.77 1010.78 1010.03 1009.87 1010.50 1010.34 1010.83 1010.46 1010.87 1011.74 1012.70 1014.15 1015.32 1016.34 1017.86 1019.20 1020.48 1021.35 1021.95 1022.61 1023.26 1023.37 1023.58 1023.09 1022.36 1021.94 1021.46 1020.68 1020.07 1019.63 1018.91 1018.04 1017.21 1016.55 1016.30 1015.44 1014.56 1013.56 1012.50 1011.48 1010.46 1009.56
1015.12 1013.77 1012.68 1011.72 1010.29 1010.26 1010.36 1009.95 1010.15 1010.94 1011.74 1012.92 1014.12 1015.36 1017.33 1017.74 1018.94 1019.89 1021.26 1021.71 1022.50 1023.29 1023.74 1023.65 1023.46 1022.94 1022.72 1022.35 1021.75 1020.97 1020.39 1019.81 1019.07 1018.29 1017.42 1016.60 1016.39 1015.47 1014.60 1013.72 1012.70 1011.67 1010.69 1009.65
1014.71 1013.92 1012.60 1011.25 1010.08 1009.86 1010.24 1010.47 1010.31 1010.86 1012.26 1013.54 1014.39 1016.68 1018.54 1019.40 1020.14 1021.49 1022.00 1022.18 1022.88 1023.72 1023.98 1023.92 1023.54 1023.01 1022.88 1022.60 1021.93 1021.18 1020.59 1020.07 1019.30 1018.51 1017.66 1016.91 1016.55 1015.73 1014.89 1014.18 1013.08 1012.14 1011.05 1009.94
1013.87 1013.40 1012.05 1010.65 1010.14 1010.22 1010.93 1011.42 1011.03 1011.65 1012.88 1014.38 1015.72 1016.84 1018.73 1020.04 1021.25 1022.22 1022.50 1022.89 1023.57 1024.27 1024.48 1024.30 1023.81 1023.46 1023.20 1022.77 1022.26 1021.54 1020.76 1020.16 1019.50 1018.53 1017.72 1017.30 1016.81 1016.09 1015.32 1014.55 1013.47 1012.42 1011.36 1010.22
1013.56 1013.14 1011.90 1010.41 1010.48 1010.80 1010.88 1011.77 1012.28 1013.14 1014.18 1015.58 1017.02 1018.43 1019.49 1020.81 1021.81 1022.59 1023.17 1024.19 1024.64 1024.85 1024.91 1024.57 1024.17 1023.84 1023.56 1022.96 1022.43 1021.93 1021.09 1020.24 1019.51 1018.57 1018.07 1017.86 1017.32 1016.55 1015.83 1015.14 1014.01 1012.83 1011.59 1010.40
1012.48 1011.82 1011.14 1010.85 1010.91 1010.82 1011.18 1012.10 1013.51 1014.04 1015.59 1016.52 1017.84 1019.38 1020.51 1021.74 1022.56 1023.27 1023.91 1024.90 1025.29 1025.32 1025.38 1025.05 1024.43 1024.24 1023.84 1023.30 1022.64 1022.09 1021.17 1020.47 1019.62 1019.22 1018.79 1018.28 1017.72 1017.16 1016.58 1015.77 1014.66 1013.58 1012.51 1011.20
1012.17 1011.91 1011.78 1011.66 1011.89 1012.02 1012.47 1012.93 1014.26 1015.19 1016.27 1017.44 1018.75 1020.38 1021.64 1022.73 1023.69 1024.33 1024.77 1024.95 1025.62 1026.04 1026.06 1025.21 1025.13 1024.59 1024.05 1023.50 1022.88 1022.20 1021.44 1020.92 1020.56 1020.03 1019.36 1018.63 1018.23 1018.13 1017.46 1016.59 1015.56 1014.62 1013.56 1012.38
1012.15 1012.32 1012.28 1012.59 1013.07 1013.22 1013.68 1014.65 1015.53 1016.39 1017.59 1018.66 1019.76 1021.47 1022.52 1023.59 1024.39 1024.71 1025.01 1025.74 1026.36 1026.48 1026.12 1025.73 1024.99 1024.70 1024.36 1023.87 1023.18 1022.55 1022.20 1021.82 1021.21 1020.58 1020.15 1019.58 1019.06 1018.60 1018.14 1017.76 1017.07 1016.08 1015.04 1013.97
1010.74 1011.02 1011.71 1013.06 1013.62 1014.36 1014.44 1015.71 1016.64 1017.20 1018.75 1019.90 1020.78 1022.09 1023.16 1024.22 1024.93 1025.18 1025.67 1026.44 1027.01 1026.89 1026.31 1026.14 1025.79 1025.29 1024.83 1024.38 1023.91 1023.51 1022.97 1022.42 1021.96 1021.53 1021.02 1020.38 1019.67 1019.10 1018.87 1018.47 1017.83 1017.19 1016.27 1015.28
1010.21 1010.96 1011.84 1013.25 1014.49 1014.99 1015.74 1016.89 1017.66 1018.41 1019.64 1020.81 1022.20 1022.94 1023.83 1024.67 1025.39 1025.86 1026.95 1027.68 1027.64 1027.53 1027.28 1026.86 1026.54 1026.15 1025.72 1025.18 1024.63 1024.14 1023.84 1023.41 1022.97 1022.49 1021.95 1021.31 1020.68 1020.11 1019.34 1018.80 1018.53 1017.97 1017.05 1016.15
1010.07 1011.54 1013.44 1014.16 1015.10 1016.00 1016.71 1017.76 1018.72 1019.95 1021.00 1021.91 1022.87 1023.90 1024.55 1025.23 1026.32 1027.23 1028.14 1028.43 1028.27 1028.16 1028.09 1027.87 1027.39 1026.90 1026.39 1025.78 1025.31 1024.95 1024.61 1024.23 1023.92 1023.48 1022.97 1022.45 1021.90 1021.33 1020.72 1019.98 1019.30 1018.65 1018.03 1017.42
1010.65 1011.00 1012.57 1014.44 1015.81 1016.95 1017.82 1018.61 1019.81 1021.10 1022.09 1022.97 1023.77 1024.38 1025.05 1025.84 1026.81 1027.80 1028.41 1028.78 1029.05 1029.04 1028.86 1028.37 1027.82 1027.39 1026.77 1026.28 1025.89 1025.66 1025.30 1024.90 1024.57 1024.22 1023.82 1023.42 1022.90 1022.37 1021.85 1021.25 1020.66 1020.08 1019.28 1018.32
1011.98 1012.44 1013.84 1014.90 1016.36 1017.55 1018.39 1019.44 1020.25 1021.61 1022.59 1023.47 1024.16 1024.97 1025.64 1026.36 1027.17 1028.31 1029.10 1029.51 1029.67 1029.98 1029.65 1029.02 1028.43 1027.86 1027.19 1026.72 1026.40 1026.13 1025.87 1025.58 1025.29 1025.06 1024.75 1024.35 1023.98 1023.49 1022.93 1022.49 1021.95 1021.45 1020.80 1020.27
1012.11 1013.80 1014.74 1015.76 1016.70 1017.86 1018.79 1019.82 1020.78 1021.85 1022.96 1023.86 1024.75 1025.55 1026.36 1027.26 1028.30 1029.28 1029.93 1030.19 1030.34 1030.26 1029.99 1029.48 1028.84 1028.05 1027.56 1027.19 1026.94 1026.83 1026.63 1026.37 1026.17 1025.95 1025.76 1025.55 1025.21 1024.81 1024.38 1023.89 1023.47 1022.92 1022.50 1021.94
1011.27 1012.86 1013.73 1014.48 1016.41 1018.03 1019.53 1020.66 1021.59 1022.59 1023.52 1024.39 1025.33 1026.43 1027.36 1028.37 1029.38 1030.35 1030.40 1030.58 1030.66 1030.21 1029.72 1029.28 1028.79 1028.39 1028.01 1027.68 1027.49 1027.44 1027.39 1027.23 1027.04 1026.94 1026.76 1026.59 1026.38 1025.95 1025.65 1025.21 1024.79 1024.29 1023.72 1023.08
1012.62 1013.57 1014.95 1016.15 1017.38 1018.63 1020.10 1021.39 1022.49 1023.43 1024.46 1025.40 1026.35 1027.54 1028.42 1029.33 1029.90 1030.37 1030.63 1030.68 1030.68 1030.52 1030.12 1029.55 1029.18 1028.90 1028.62 1028.17 1028.06 1028.17 1028.15 1028.12 1027.97 1027.96 1027.83 1027.70 1027.44 1027.06 1026.73 1026.38 1026.00 1025.54 1024.96 1024.28
1014.33 1015.29 1016.27 1017.52 1018.72 1019.66 1021.22 1022.38 1023.32 1024.34 1025.37 1026.15 1027.32 1028.38 1029.33 1030.12 1030.26 1030.62 1030.78 1031.05 1030.88 1030.52 1030.15 1029.88 1029.63 1029.46 1029.29 1029.12 1029.07 1029.10 1029.06 1029.01 1028.95 1028.93 1028.89 1028.77 1028.69 1028.33 1027.88 1027.36 1026.97 1026.57 1026.08 1025.46
1015.75 1016.64 1017.68 1018.83 1020.18 1021.18 1022.00 1022.95 1023.85 1025.09 1026.12 1026.88 1027.62 1028.61 1029.40 1030.19 1030.55 1030.80 1031.05 1031.07 1030.90 1030.57 1030.46 1030.37 1030.23 1030.11 1029.86 1029.82 1029.82 1029.95 1029.91 1029.88 1029.92 1029.98 1030.09 1030.03 1029.79 1029.32 1029.02 1028.51 1027.96 1027.53 1027.09 1026.56
1017.05 1017.94 1019.05 1020.05 1021.09 1022.34 1023.22 1023.84 1024.75 1025.76 1026.68 1027.55 1028.21 1028.90 1029.62 1030.52 1030.70 1030.95 1031.29 1031.18 1030.94 1030.86 1030.90 1031.00 1031.02 1031.10 1030.60 1030.41 1030.58 1030.75 1030.83 1030.80 1030.79 1030.75 1030.85 1030.75 1030.65 1030.39 1029.88 1029.39 1028.99 1028.42 1027.92 1027.32
1018.13 1019.05 1020.00 1020.97 1021.93 1023.07 1024.03 1024.69 1025.42 1026.16 1027.16 1027.73 1028.44 1029.08 1029.47 1029.96 1030.28 1030.73 1031.07 1030.96 1031.04 1031.13 1031.30 1031.59 1031.61 1031.61 1031.67 1031.73 1031.59 1031.58 1031.60 1031.61 1031.65 1031.63 1031.57 1031.41 1031.21 1030.91 1030.52 1030.11 1029.57 1029.16 1028.69 1028.11
1019.06 1019.99 1020.88 1021.94 1022.64 1023.58 1024.92 1026.01 1026.05 1026.58 1027.08 1027.69 1028.35 1028.88 1029.19 1030.04 1030.48 1030.27 1030.53 1030.80 1031.12 1031.33 1031.54 1031.92 1031.94 1031.82 1032.12 1032.81 1032.44 1032.32 1032.26 1032.20 1032.14 1032.08 1031.99 1031.85 1031.65 1031.32 1030.96 1030.64 1030.19 1029.72 1029.26 1028.80
1019.78 1020.68 1021.55 1022.22 1022.91 1023.95 1024.96 1025.94 1026.69 1027.27 1027.50 1028.00 1028.60 1029.10 1029.22 1029.57 1029.72 1030.20 1030.47 1030.81 1031.24 1031.57 1031.90 1031.87 1031.85 1032.11 1032.65 1033.08 1032.80 1032.72 1032.69 1032.63 1032.54 1032.44 1032.35 1032.27 1032.10 1031.85 1031.53 1031.11 1030.65 1030.29 1029.95 1029.56
1020.38 1021.09 1021.82 1022.29 1022.86 1023.86 1024.90 1025.70 1026.40 1027.14 1027.51 1028.39 1028.87 1029.33 1029.39 1029.68 1029.80 1030.15 1030.59 1030.93 1031.29 1031.74 1032.19 1032.57 1032.34 1032.48 1032.55 1032.83 1032.82 1032.84 1032.71 1032.74 1032.68 1032.63 1032.65 1032.69 1032.64 1032.38 1032.11 1031.59 1030.92 1030.45 1030.19 1029.90
1020.97 1021.54 1022.35 1022.99 1023.50 1024.12 1024.85 1025.48 1026.21 1026.89 1027.07 1027.63 1028.40 1029.14 1029.38 1029.63 1029.94 1030.22 1030.61 1031.03 1031.32 1031.72 1032.22 1032.52 1032.28 1032.06 1032.19 1032.32 1032.30 1032.19 1032.26 1032.28 1032.28 1032.14 1032.38 1032.42 1032.39 1032.38 1032.15 1031.75 1031.28 1030.85 1030.39 1030.03
Wind_Speed
12 9 9 6 8 15 13 13 9 14 13 15 12 14 16 12 11 11 9 6 4 3 2 4 6 6 7 7 8 9 10 12 15 12 14 14 14 15 14 14 14 15 16 16
9 19 11 6 9 7 10 11 11 14 21 17 7 11 11 12 12 9 8 6 4 4 3 5 6 8 9 9 9 8 10 13 14 15 14 15 15 15 14 15 16 15 15 16
10 9 6 7 19 13 6 6 9 14 26 5 3 11 14 14 12 11 9 6 5 4 3 5 7 8 8 9 9 9 11 12 14 14 14 15 14 15 16 18 17 15 15 16
5 1 9 6 2 12 16 20 14 14 2 7 6 7 11 11 11 10 9 7 6 4 2 4 5 6 8 8 9 10 11 13 13 13 14 15 15 15 17 17 17 15 15 16
5 5 5 9 5 7 10 14 15 15 6 14 17 14 8 8 9 10 8 6 6 4 3 4 6 7 8 8 10 12 13 14 14 13 15 14 14 17 16 16 16 15 15 16
3 5 7 5 4 1 4 8 6 5 15 19 14 8 5 10 13 11 9 7 5 4 4 5 7 7 7 8 10 12 13 14 12 13 13 13 15 16 15 13 15 13 15 15
9 5 7 7 6 2 5 8 2 6 12 11 5 3 17 14 13 10 9 7 6 4 4 5 7 7 8 9 12 12 12 12 11 13 12 14 13 13 14 14 15 14 15 14
6 5 9 5 1 6 4 3 7 11 12 18 18 17 16 14 12 10 9 6 5 4 4 6 6 7 7 10 10 12 11 11 12 13 12 10 13 13 14 14 15 15 16 14
8 6 2 3 3 3 4 8 6 16 14 19 18 15 14 11 10 9 8 4 4 4 5 5 7 6 9 10 11 11 11 12 13 13 12 10 10 13 12 12 12 13 13 14
3 2 2 6 8 9 9 13 13 16 17 16 18 13 13 10 8 7 5 6 4 4 4 7 6 8 8 10 11 11 11 13 11 12 13 11 7 9 9 11 12 12 13 13
2 2 8 7 8 13 17 16 16 15 14 16 17 13 12 10 8 7 8 5 3 3 5 6 8 9 9 11 12 11 10 9 12 9 10 9 9 8 10 10 15 13 12 12
8 11 4 6 10 11 17 14 11 18 15 13 14 13 12 9 7 7 7 5 4 6 7 8 7 8 10 10 11 10 10 9 8 9 9 9 9 8 15 19 24 26 28 19
6 9 9 15 10 12 14 13 13 15 14 16 12 12 12 11 9 11 8 5 6 5 6 7 8 8 9 9 8 10 9 11 8 10 10 10 10 10 10 13 21 25 29 29
18 19 12 7 8 11 15 16 18 15 13 13 13 12 11 11 11 7 4 1 2 5 6 5 5 7 8 9 7 8 7 10 7 7 8 9 9 9 9 10 11 12 20 25
12 7 15 16 15 15 15 16 16 14 13 12 10 11 11 12 10 8 4 3 4 4 5 6 6 9 7 6 6 7 7 7 6 7 7 8 8 8 9 10 10 10 11 15
13 18 18 19 17 15 15 13 16 14 11 11 11 10 10 11 10 9 7 6 4 4 5 5 5 7 8 6 6 6 6 11 8 8 8 9 9 9 10 10 10 10 11 13
20 10 16 16 16 15 13 10 12 13 12 11 12 12 11 10 9 7 4 4 4 3 3 2 5 5 6 8 6 5 5 6 9 7 8 8 8 9 9 9 10 10 10 12
10 12 12 21 19 15 13 12 12 12 11 12 11 9 8 7 7 4 2 2 4 5 6 5 4 5 6 7 7 5 5 6 7 7 7 7 8 7 8 8 9 10 10 11
13 17 16 16 15 14 13 12 10 10 10 11 11 9 7 7 6 4 3 5 5 4 6 5 7 7 7 8 6 5 5 5 6 6 6 7 7 8 7 8 8 9 9 9
15 14 16 15 12 14 12 8 11 10 8 11 11 10 8 5 5 6 3 4 1 1 2 4 5 5 6 7 7 5 5 5 6 5 5 6 5 5 6 8 7 8 8 8
14 14 14 13 11 9 10 10 12 12 9 11 12 10 9 6 3 4 5 4 3 3 4 5 4 3 4 4 5 4 4 4 4 4 5 4 5 5 5 6 5 6 6 6
11 12 12 12 12 10 7 9 10 10 10 7 7 8 9 5 4 3 1 3 1 3 3 3 3 4 4 6 4 4 4 4 4 4 4 4 4 5 5 5 6 6 6 5
9 10 11 11 12 11 8 8 8 10 9 10 11 9 6 5 5 6 2 2 2 3 3 2 2 5 6 4 3 3 4 4 3 3 3 3 2 3 3 4 4 5 6 7
11 9 7 9 12 11 11 2 6 5 7 6 7 6 8 5 2 1 1 5 5 4 3 2 2 4 4 3 3 3 3 2 2 2 2 3 2 3 4 4 4 4 4 6
9 9 9 11 10 7 9 7 7 4 6 5 5 4 4 2 4 3 4 3 5 3 3 2 3 3 2 2 2 1 0 1 1 1 2 2 3 3 3 3 3 4 4 4
10 7 6 6 7 8 7 8 7 5 6 4 1 2 2 1 2 5 3 4 3 4 2 2 2 2 2 2 2 2 2 1 1 1 1 2 3 3 3 4 4 4 4 4
7 7 6 5 4 6 7 6 8 6 4 6 5 3 4 2 3 3 4 3 3 3 2 2 2 2 2 2 2 2 2 2 2 2 2 2 2 2 3 4 4 4 4 4
Wind_Direction
279 289 291 236 205 225 208 224 197 253 259 263 199 190 196 180 161 158 154 148 130 153 308 325 319 308 312 318 336 343 342 346 346 340 339 341 336 332 327 327 328 326 323 322
259 253 236 283 309 258 222 235 246 253 265 252 248 185 163 166 159 152 151 135 125 101 17 342 333 331 330 334 342 346 345 345 343 343 339 343 335 331 331 334 337 331 329 325
269 260 231 222 231 214 217 216 204 222 236 114 119 167 164 154 158 151 146 146 126 94 28 346 339 327 330 336 340 347 346 344 344 341 339 339 335 335 339 340 337 335 331 328
284 342 237 246 284 230 222 239 228 246 180 178 179 96 109 123 134 135 136 133 114 87 21 345 310 325 335 341 343 353 350 343 341 340 342 340 337 341 341 340 339 336 331 329
250 230 316 302 210 176 178 246 237 242 148 118 111 93 49 84 109 112 119 109 96 77 9 330 338 339 342 347 351 353 349 342 337 334 342 338 336 342 342 341 340 338 335 330
157 262 219 243 265 304 122 280 227 172 144 147 144 154 137 114 102 98 89 82 86 48 1 351 342 346 350 350 353 352 343 334 330 339 341 342 340 344 341 339 339 337 337 337
223 228 269 247 254 266 149 246 112 124 140 143 98 104 127 112 98 94 86 66 51 28 0 340 344 351 0 358 350 338 333 327 336 348 347 348 343 343 342 342 344 341 343 341
196 211 263 188 255 186 192 18 108 107 111 106 113 110 110 109 111 100 78 54 29 9 344 347 355 360 1 2 337 340 329 338 347 356 358 346 349 348 348 344 350 347 347 347
190 212 335 337 303 40 121 119 114 112 117 122 119 115 112 113 105 96 90 74 25 11 346 346 4 11 6 350 344 342 343 351 357 357 355 346 360 353 353 351 353 352 354 349
103 14 47 53 56 78 90 102 109 114 121 118 116 114 105 103 105 110 106 71 30 355 343 12 355 6 0 352 351 351 356 359 353 356 355 357 357 3 356 356 358 357 358 352
88 146 86 67 105 113 103 99 104 100 118 119 115 113 119 116 114 108 86 64 37 4 16 7 2 1 356 359 0 359 1 358 3 1 355 356 8 354 7 9 9 1 2 352
215 173 129 140 126 124 112 115 115 115 105 99 110 115 114 110 106 93 79 58 40 26 22 6 2 5 359 357 6 8 9 5 6 4 360 356 353 359 10 12 15 15 12 10
166 136 113 125 122 121 113 121 111 105 109 115 110 113 114 115 103 90 77 71 49 32 22 16 15 14 358 353 0 16 18 14 6 9 6 4 1 360 354 2 12 16 14 14
123 111 108 134 140 116 112 109 102 101 105 111 115 112 114 107 100 93 85 90 35 35 26 360 359 13 349 350 6 15 11 12 10 6 6 5 4 2 1 0 1 2 8 12
125 84 129 117 115 112 115 118 113 116 120 116 119 120 118 116 112 105 99 74 57 45 14 4 15 5 344 351 14 16 17 13 8 6 6 3 2 4 7 5 6 4 2 7
111 112 126 128 128 131 128 126 123 134 128 129 122 118 118 120 111 96 73 57 68 34 340 351 10 346 5 9 12 14 10 17 22 16 11 12 11 9 8 9 7 9 7 6
117 120 128 138 141 141 136 130 132 135 133 131 127 123 116 108 104 103 72 35 68 52 319 350 337 335 6 24 19 14 12 18 16 23 20 14 13 15 11 13 10 8 7 3
110 129 141 143 144 137 129 132 131 135 137 132 122 110 105 115 134 150 114 23 40 38 18 346 341 6 17 18 26 25 25 27 27 21 19 16 10 15 13 12 13 9 4 5
124 125 126 129 133 128 130 132 128 120 117 123 120 120 123 126 132 134 130 80 57 50 345 352 22 27 27 24 32 27 30 23 27 30 20 15 18 13 14 14 13 11 6 6
107 106 110 113 117 127 120 117 122 116 120 117 118 120 120 128 130 112 90 93 199 251 334 27 34 32 29 30 31 37 38 33 31 21 24 20 13 3 3 7 10 9 7 7
118 117 114 115 109 107 119 132 131 133 132 137 139 142 139 140 124 135 91 92 328 39 58 46 46 29 34 30 36 38 36 35 34 23 21 8 2 6 4 354 355 4 0 1
126 123 121 124 123 114 116 123 122 127 131 124 115 127 126 131 128 80 222 157 240 63 58 40 39 45 49 48 48 42 38 38 31 24 20 9 12 -0 355 356 359 355 354 352
116 123 123 128 135 130 107 113 125 136 143 146 148 150 149 157 155 133 125 226 155 120 94 62 64 72 63 54 56 56 44 41 28 20 9 5 354 351 343 349 348 358 356 355
116 112 102 112 123 121 128 137 129 130 139 137 141 150 140 136 314 198 178 133 133 120 116 140 104 93 83 68 60 54 36 23 14 358 354 8 6 350 2 350 352 344 349 353
116 120 128 136 133 133 130 138 119 121 132 127 136 176 166 183 153 190 155 152 147 130 121 107 126 118 109 118 112 107 274 298 305 338 351 346 340 348 336 340 341 336 341 343
134 136 137 135 133 140 144 154 153 161 146 138 126 174 195 151 140 134 142 157 157 162 177 192 180 172 177 183 192 217 234 267 282 293 292 310 322 331 328 329 333 334 327 322
99 112 119 105 118 140 155 154 152 169 156 148 149 179 177 161 148 140 147 159 165 174 199 222 213 205 194 219 234 240 250 269 255 263 260 287 308 301 316 311 314 314 319 328